📊 Raw Sensor Data

Showing records 42826 to 42850 of 85,006 total

ID Distance (ft) Battery V Battery A Int Temp (°F) Int Humid (%) Ext Temp (°F) Solar V RSSI SNR Time Stamp
42193 15.4 3.98 5 112 47 104 5.10 -72 7 05/31/2025 05:00 PM
42192 15.4 3.98 0 112 46 103 5.10 -73 8 05/31/2025 04:45 PM
42191 15.4 3.98 0 111 46 101 5.10 -72 8 05/31/2025 04:30 PM
42190 15.4 3.98 5 111 46 101 5.10 -72 8 05/31/2025 04:15 PM
42189 15.4 3.98 0 111 46 102 5.10 -72 7 05/31/2025 04:00 PM
42188 15.4 3.98 0 111 45 98 5.10 -73 8 05/31/2025 03:45 PM
42187 15.4 3.98 5 112 44 104 5.20 -74 8 05/31/2025 03:30 PM
42186 15.4 3.98 5 109 45 102 5.10 -73 8 05/31/2025 03:15 PM
42185 15.4 3.98 0 110 44 100 5.10 -73 8 05/31/2025 03:00 PM
42184 15.4 4.00 5 110 43 100 5.20 -72 8 05/31/2025 02:45 PM
42183 15.4 4.02 0 110 43 104 5.20 -73 9 05/31/2025 02:30 PM
42182 15.4 3.98 0 109 42 103 5.10 -73 7 05/31/2025 02:15 PM
42181 15.4 3.98 0 108 42 102 5.20 -73 8 05/31/2025 02:00 PM
42180 15.3 3.99 5 107 41 101 5.20 -74 8 05/31/2025 01:45 PM
42179 15.4 3.98 5 105 41 101 5.20 -73 8 05/31/2025 01:30 PM
42178 15.3 4.03 5 103 42 100 5.20 -73 7 05/31/2025 01:15 PM
42177 15.3 4.01 5 101 42 97 5.20 -73 7 05/31/2025 01:00 PM
42176 15.3 3.98 0 98 43 95 5.20 -72 7 05/31/2025 12:45 PM
42175 15.3 4.01 5 96 44 92 5.10 -72 7 05/31/2025 12:30 PM
42174 15.3 3.99 5 95 44 91 5.10 -73 8 05/31/2025 12:15 PM
42173 15.4 4.07 5 95 43 91 5.10 -73 8 05/31/2025 12:00 PM
42172 15.4 3.98 5 94 43 95 5.10 -72 8 05/31/2025 11:45 AM
42171 15.4 3.98 5 92 43 91 5.10 -72 8 05/31/2025 11:30 AM
42170 15.4 3.98 0 91 43 88 5.10 -74 8 05/31/2025 11:15 AM
42169 15.4 3.98 0 90 43 94 5.10 -74 8 05/31/2025 11:00 AM